[[{"header":{"parameterUnit":"m.s-1","parameterCategory":1,"la1":30.2991,"la2":30.254,"lo1":-89.0895,"lo2":-89.0444,"dy":0.0017,"dx":0.0017,"nx":28,"ny":28,"refTime":"2024-08-15T21:00:00:Z","depth":0,"parameterNumber":2,"parameterNumberName":"U-component_of_WINDS"},"data":[0,0,0,0,0,0,0,0,0,0,0,0,0,0,0,0,0,0,0,0,0,0,0,0,0,0,0,0,0,0,0,0,0,0,0,0,0,0,0,0,0,0,0,0,0,0,0,0,0,0,0,0,0,0,0,0,0,0,-1.8495,-1.8495,0,-1.8565,-1.8566,-1.8567,-1.858,-1.858,-1.8579,-1.8578,-1.8656,-1.8659,-1.8661,0,0,0,0,0,0,0,0,0,0,0,0,0,-1.8377,-1.8379,-1.8495,-1.8496,-1.8496,-1.8565,-1.8566,-1.8567,-1.858,-1.858,-1.8579,-1.8578,-1.8655,-1.8658,-1.8661,0,0,0,0,0,0,0,0,0,0,0,0,0,-1.8436,-1.838,-1.8495,-1.8511,-1.8513,-1.8565,-1.8566,-1.8567,-1.858,-1.8579,-1.8579,-1.8578,-1.8654,-1.8658,-1.8662,-1.8704,0,0,-1.8674,-1.8676,0,0,0,0,0,0,0,0,-1.8433,-1.844,-1.8508,-1.851,-1.8513,-1.8563,-1.8553,-1.8613,-1.8581,-1.8555,-1.8578,-1.8577,-1.8626,-1.8632,-1.8648,-1.8707,-1.8711,-1.8674,-1.8677,-1.8678,-1.8679,0,0,0,0,0,0,0,-1.8429,-1.8438,-1.8523,-1.8509,-1.8512,-1.8517,-1.8524,-1.8565,-1.8595,-1.8557,-1.8558,-1.8566,-1.8627,-1.8644,-1.865,-1.8712,-1.8674,-1.8678,-1.868,-1.8682,-1.8812,-1.8813,0,0,0,0,0,0,-1.8421,-1.8434,-1.8521,-1.8525,-1.847,-1.852,-1.8528,-1.8548,-1.8594,-1.8601,-1.8567,-1.8567,-1.8638,-1.8645,-1.8652,-1.8705,-1.8678,-1.8682,-1.8684,-1.8811,-1.8812,-1.8813,0,0,0,0,0,0,-1.8418,-1.8428,-1.8518,-1.848,-1.8492,-1.8523,-1.8545,-1.855,-1.8566,-1.8602,-1.8608,-1.8578,-1.8637,-1.8647,-1.8691,-1.8708,-1.8684,-1.8687,-1.8809,-1.8811,-1.8812,-1.881,0,0,0,0,0,0,-1.8415,-1.8427,-1.8442,-1.848,-1.8493,-1.8553,-1.8546,-1.8552,-1.8572,-1.8572,-1.8613,-1.8619,-1.8637,-1.8685,-1.8695,-1.8713,-1.869,-1.8808,-1.881,-1.8812,-1.8808,-1.8811,-1.8813,0,0,0,0,0,-1.8411,-1.8439,-1.8442,-1.8453,-1.8512,-1.8554,-1.8562,-1.858,-1.8573,-1.8589,-1.8613,-1.8618,-1.8705,-1.8689,-1.87,-1.872,-1.8807,-1.8809,-1.8812,-1.8807,-1.8811,-1.8813,0,0,0,0,0,0,-1.8403,-1.8444,-1.8448,-1.849,-1.8518,-1.8556,-1.8576,-1.8583,-1.8614,-1.8614,-1.8637,-1.8646,-1.8689,-1.8709,-1.8691,-1.8764,-1.8756,-1.8761,-1.8748,-1.8752,-1.8754,-1.8748,-1.8694,0,0,0,0,0,-1.8406,-1.8435,-1.847,-1.8503,-1.8517,-1.8544,-1.8563,-1.8575,-1.8606,-1.8618,-1.8645,-1.8676,-1.8711,-1.8733,-1.8766,-1.8812,-1.8822,-1.8832,-1.8834,-1.8836,-1.8839,-1.8867,-1.8871,-1.8821,-1.8821,-1.8821,0,0,-1.8413,-1.8439,-1.8456,-1.8503,-1.8526,-1.8557,-1.8554,-1.8587,-1.8611,-1.8624,-1.8666,-1.8687,-1.8724,-1.8769,-1.8791,-1.8788,-1.8856,-1.8839,-1.884,-1.8843,-1.887,-1.8874,-1.8879,-1.8823,-1.8823,-1.8822,0,0,-1.8441,-1.8463,-1.8493,-1.8517,-1.8552,-1.857,-1.8577,-1.8615,-1.8629,-1.8671,-1.8682,-1.8713,-1.8771,-1.8797,-1.8818,-1.8859,-1.8866,-1.887,-1.8882,-1.8908,-1.8912,-1.8916,-1.8931,-1.8935,-1.8873,-1.8873,-1.8873,0,-1.8445,-1.849,-1.8508,-1.8541,-1.8561,-1.8574,-1.8606,-1.8629,-1.8674,-1.8689,-1.8685,-1.8759,-1.8785,-1.8837,-1.8847,-1.8864,-1.8875,-1.8864,-1.891,-1.8914,-1.8917,-1.8932,-1.8937,-1.8873,-1.8873,-1.8873,-1.8873,0,-1.8494,-1.8525,-1.8546,-1.8587,-1.8611,-1.8643,-1.8668,-1.8691,-1.8702,-1.8721,-1.8766,-1.8798,-1.8838,-1.8852,-1.8864,-1.8907,-1.8904,-1.8905,-1.8896,-1.8922,-1.8936,-1.8941,-1.8874,-1.8874,-1.8874,-1.8874,0,0,-1.8516,-1.8569,-1.8576,-1.8595,-1.8636,-1.8662,-1.8696,-1.8734,-1.8753,-1.8785,-1.8815,-1.8866,-1.8867,-1.8891,-1.8906,-1.8929,-1.896,-1.8927,-1.8928,-1.8932,-1.9011,-1.9009,-1.9015,-1.8965,-1.8967,-1.8967,-1.9008,0,-1.8548,-1.8606,-1.8625,-1.8675,-1.8705,-1.8719,-1.8749,-1.8779,-1.8799,-1.8829,-1.8853,-1.8888,-1.8887,-1.8901,-1.8925,-1.8951,-1.8976,-1.8948,-1.8995,-1.8996,-1.8983,-1.9022,-1.902,-1.9056,-1.9013,-1.9014,-1.9015,0,-1.8593,-1.8623,-1.8675,-1.8713,-1.8727,-1.8753,-1.8791,-1.8819,-1.8854,-1.8868,-1.8895,-1.8909,-1.8948,-1.8939,-1.8994,-1.8974,-1.8995,-1.9011,-1.9013,-1.9017,-1.9006,-1.9027,-1.9068,-1.9073,-1.9024,-1.9023,-1.9022,0,-1.8603,-1.8658,-1.8697,-1.8713,-1.8759,-1.8777,-1.8797,-1.8831,-1.8854,-1.8888,-1.8903,-1.8943,-1.8964,-1.8995,-1.902,-1.9011,-1.9073,-1.9066,-1.9086,-1.9086,-1.9097,-1.9096,-1.9142,-1.9112,-1.9112,-1.9112,-1.9112,0,-1.8636,-1.8668,-1.8702,-1.8725,-1.8762,-1.8785,-1.8821,-1.8843,-1.8874,-1.8903,-1.892,-1.8948,-1.8979,-1.9012,-1.9033,-1.9076,-1.9085,-1.9099,-1.9103,-1.9096,-1.9094,-1.9109,-1.9107,-1.9114,-1.9113,-1.9113,-1.9113,0,-1.8653,-1.8678,-1.872,-1.876,-1.8771,-1.8796,-1.8832,-1.8857,-1.8878,-1.8916,-1.8926,-1.8961,-1.9001,-1.9029,-1.9081,-1.9095,-1.9141,-1.9146,-1.9128,-1.9131,-1.9149,-1.9147,-1.9205,-1.9214,-1.918,-1.918,-1.918,0,-1.8672,-1.8696,-1.8739,-1.8759,-1.8779,-1.8811,-1.8834,-1.886,-1.8883,-1.8926,-1.8946,-1.8987,-1.9021,-1.9085,-1.9116,-1.9157,-1.9163,-1.9181,-1.9169,-1.9162,-1.9163,-1.916,-1.9164,-1.9182,-1.9182,-1.9182,-1.9182,0,-1.8703,-1.8714,-1.8745,-1.8781,-1.8808,-1.8838,-1.8869,-1.8885,-1.8916,-1.8943,-1.8983,-1.9009,-1.9062,-1.9103,-1.9147,-1.9171,-1.9183,-1.9186,-1.9193,-1.9185,-1.9174,-1.918,-1.9132,-1.9184,-1.9184,-1.9184,-1.9184,-1.9184,-1.8721,-1.8743,-1.8777,-1.8812,-1.8838,-1.8866,-1.8891,-1.8916,-1.8949,-1.8993,-1.9007,-1.9049,-1.9087,-1.9147,-1.9171,-1.9207,-1.9206,-1.9216,-1.9218,-1.922,-1.9219,-1.9169,-1.9215,-1.9215,-1.9215,-1.9215,-1.9215,0,-1.8752,-1.8774,-1.8806,-1.8848,-1.8876,-1.8884,-1.8919,-1.8943,-1.8978,-1.9012,-1.9044,-1.9092,-1.9133,-1.9168,-1.921,-1.9232,-1.9239,-1.9242,-1.9241,-1.9246,-1.9218,-1.9207,-1.9236,-1.9236,-1.9236,-1.9236,-1.9236,-1.9236,-1.8771,-1.881,-1.8825,-1.8878,-1.8901,-1.8941,-1.896,-1.8988,-1.9014,-1.9066,-1.9099,-1.9121,-1.9156,-1.9202,-1.924,-1.925,-1.9265,-1.9267,-1.9278,-1.9251,-1.9248,-1.9246,-1.9236,-1.927,-1.927,-1.9304,-1.9304,-1.9304]},{"header":{"parameterUnit":"m.s-1","parameterCategory":1,"la1":30.2991,"la2":30.254,"lo1":-89.0895,"lo2":-89.0444,"dy":0.0017,"dx":0.0017,"nx":28,"ny":28,"refTime":"2024-08-15T21:00:00:Z","depth":0,"parameterNumber":3,"parameterNumberName":"V-component_of_WINDS"},"data":[0,0,0,0,0,0,0,0,0,0,0,0,0,0,0,0,0,0,0,0,0,0,0,0,0,0,0,0,0,0,0,0,0,0,0,0,0,0,0,0,0,0,0,0,0,0,0,0,0,0,0,0,0,0,0,0,0,0,2.5899,2.5899,0,2.5854,2.5854,2.5853,2.5903,2.5905,2.5907,2.5908,2.5859,2.5855,2.5852,0,0,0,0,0,0,0,0,0,0,0,0,0,2.6024,2.6022,2.5899,2.5899,2.5898,2.5854,2.5854,2.5853,2.5903,2.5905,2.5907,2.5909,2.586,2.5856,2.5852,0,0,0,0,0,0,0,0,0,0,0,0,0,2.5974,2.6021,2.59,2.5918,2.5919,2.5854,2.5854,2.5853,2.5902,2.5905,2.5908,2.591,2.5861,2.5856,2.5852,2.5766,0,0,2.5837,2.5835,0,0,0,0,0,0,0,0,2.5976,2.5969,2.5916,2.5916,2.5918,2.5887,2.588,2.5824,2.5901,2.5908,2.5909,2.5912,2.5865,2.5861,2.5846,2.5763,2.5761,2.5837,2.5834,2.5832,2.5831,0,0,0,0,0,0,0,2.598,2.5971,2.5881,2.5915,2.5916,2.5927,2.5923,2.5869,2.5871,2.5908,2.5911,2.5906,2.5867,2.585,2.5845,2.5761,2.5837,2.5833,2.583,2.5828,2.5604,2.5601,0,0,0,0,0,0,2.5982,2.5974,2.5883,2.588,2.5955,2.5922,2.5918,2.5894,2.5872,2.5872,2.5903,2.5908,2.5857,2.585,2.5843,2.574,2.5832,2.5828,2.5825,2.5607,2.5603,2.56,0,0,0,0,0,0,2.5984,2.5973,2.5885,2.5928,2.5917,2.5917,2.589,2.5892,2.5875,2.5869,2.5869,2.5886,2.5859,2.585,2.5785,2.5739,2.5826,2.5822,2.5611,2.5606,2.5601,2.5532,0,0,0,0,0,0,2.5988,2.5974,2.5942,2.5927,2.5915,2.5827,2.5887,2.5889,2.5868,2.5873,2.5853,2.5852,2.586,2.5791,2.578,2.5734,2.5818,2.5615,2.5608,2.5603,2.5539,2.5526,2.5515,0,0,0,0,0,2.5992,2.5924,2.594,2.5929,2.5876,2.5825,2.5818,2.583,2.5864,2.5831,2.5827,2.5853,2.5746,2.5784,2.5772,2.5724,2.5617,2.561,2.5603,2.5544,2.5528,2.5515,0,0,0,0,0,0,2.5933,2.5923,2.594,2.5866,2.5846,2.5833,2.5792,2.5813,2.5782,2.5789,2.5804,2.5799,2.5729,2.572,2.5763,2.5639,2.5687,2.5677,2.5646,2.5631,2.562,2.5622,2.5814,0,0,0,0,0,2.5912,2.5873,2.5865,2.58,2.5789,2.5792,2.5771,2.5782,2.5761,2.5753,2.5744,2.5722,2.5683,2.5657,2.5622,2.5539,2.5534,2.5499,2.5488,2.5478,2.5468,2.5422,2.5406,2.5576,2.5576,2.5576,0,0,2.5866,2.5856,2.583,2.5788,2.5774,2.5731,2.5785,2.5738,2.5706,2.5745,2.5683,2.5675,2.5652,2.5576,2.5543,2.5567,2.542,2.5469,2.5461,2.5456,2.5413,2.5396,2.5382,2.5571,2.5572,2.5573,0,0,2.5761,2.5751,2.5694,2.5679,2.5658,2.566,2.5647,2.5631,2.5627,2.5565,2.5593,2.5555,2.5489,2.5471,2.5453,2.5341,2.5363,2.5329,2.5265,2.522,2.5206,2.5195,2.5152,2.5137,2.532,2.532,2.532,0,2.5707,2.5646,2.5662,2.5613,2.5593,2.5628,2.557,2.5554,2.5521,2.5506,2.5534,2.5451,2.5438,2.5357,2.533,2.5315,2.5299,2.533,2.5207,2.5196,2.5185,2.5145,2.5129,2.5316,2.5316,2.5316,2.5317,0,2.5579,2.5536,2.5493,2.5461,2.5436,2.5383,2.539,2.5362,2.5376,2.5375,2.531,2.5296,2.5257,2.5239,2.5252,2.5161,2.5176,2.5206,2.5254,2.5164,2.5126,2.5111,2.531,2.5311,2.5312,2.5313,0,0,2.5434,2.5413,2.5396,2.5382,2.536,2.5326,2.5274,2.5237,2.5212,2.5189,2.5144,2.5087,2.5114,2.5094,2.5104,2.5065,2.4974,2.5099,2.5099,2.5074,2.487,2.4846,2.4828,2.499,2.4987,2.4985,2.4871,0,2.5327,2.5237,2.5251,2.5163,2.5122,2.5155,2.5109,2.509,2.5088,2.5052,2.505,2.5008,2.5048,2.5036,2.4998,2.4993,2.4933,2.5002,2.4946,2.4944,2.4948,2.4809,2.4784,2.4677,2.4857,2.4855,2.4853,0,2.519,2.5162,2.5071,2.5055,2.5038,2.4996,2.4963,2.4929,2.4908,2.4909,2.4886,2.4904,2.485,2.4901,2.4826,2.4872,2.4851,2.4845,2.4841,2.4834,2.4891,2.4796,2.4644,2.4627,2.483,2.4832,2.4834,0,2.509,2.503,2.4967,2.4954,2.4934,2.4904,2.4894,2.4876,2.4853,2.4823,2.4808,2.4773,2.4752,2.4724,2.4731,2.4768,2.4653,2.4706,2.4651,2.465,2.4623,2.4624,2.4462,2.4613,2.4613,2.4613,2.4614,0,2.4968,2.491,2.4922,2.4883,2.4818,2.4834,2.4769,2.4764,2.4747,2.4706,2.4733,2.4694,2.4707,2.4668,2.4674,2.4609,2.4601,2.4599,2.46,2.4595,2.4595,2.4579,2.4585,2.4609,2.461,2.4611,2.4612,0,2.4845,2.4851,2.4784,2.4771,2.4766,2.4719,2.4707,2.467,2.4671,2.4618,2.4607,2.4607,2.4563,2.4568,2.4519,2.4522,2.4441,2.4453,2.4448,2.445,2.4394,2.4398,2.4214,2.419,2.4358,2.4357,2.4356,0,2.4765,2.4721,2.4704,2.4679,2.4667,2.4627,2.4603,2.4617,2.4591,2.4563,2.4528,2.4487,2.4454,2.4382,2.4376,2.4338,2.4348,2.4286,2.4342,2.4337,2.4344,2.4345,2.434,2.4274,2.4272,2.4271,2.4269,0,2.4622,2.4627,2.4592,2.4558,2.4529,2.4503,2.4479,2.4457,2.4468,2.4437,2.4393,2.4368,2.4317,2.4275,2.4239,2.4228,2.4249,2.4252,2.4237,2.4229,2.4227,2.4225,2.4415,2.4256,2.4257,2.4258,2.4259,2.4259,2.4516,2.4478,2.446,2.442,2.4403,2.438,2.4344,2.434,2.4304,2.4264,2.4275,2.4223,2.4203,2.4157,2.4142,2.4101,2.4124,2.4102,2.4096,2.409,2.4082,2.4236,2.4095,2.4096,2.4096,2.4096,2.4097,0,2.4372,2.4362,2.4325,2.4291,2.4259,2.4285,2.426,2.4231,2.4186,2.4165,2.4133,2.408,2.4039,2.4032,2.3992,2.3961,2.397,2.395,2.3951,2.3948,2.4066,2.4082,2.3943,2.3943,2.3943,2.3943,2.3943,2.3943,2.4293,2.423,2.4232,2.416,2.415,2.4101,2.4084,2.4063,2.4046,2.3987,2.3953,2.3949,2.3932,2.3892,2.3855,2.3854,2.3837,2.3812,2.3814,2.3924,2.3939,2.3954,2.3969,2.3809,2.3809,2.37,2.3699,2.3698]}]]